When you browse on this site, cookies collect data to enhance your experience and personalize the content and advertising you see.
Visit our Privacy Policy to learn more. By continuing to use the site, you agree to this use of cookies and data.
  • Em Portugal
  • Lista de países
  • Para 7 dias
  • Temperatura da água
  • Mapas de satélite
  • Mapa do tempo
  • Widgets de tempo
  • user-avatar
    Iniciar Sessão

    Previsão horária em Bolotniki

    Hoje, 18 Janeiro, Sexta-feira

    Tempo Temperatura Precipitação Vento Pressão Humidade
    00:00 -2°C° 0 mm 6 m/s 734 mmHg 87%
    01:00 -2°C° 0 mm 6 m/s 734 mmHg 87%
    02:00 -2°C° 0 mm 6 m/s 735 mmHg 87%
    03:00 -1°C° 0 mm 5 m/s 735 mmHg 88%
    04:00 -2°C° 0 mm 5 m/s 735 mmHg 89%
    05:00 -2°C° 0 mm 5 m/s 736 mmHg 90%
    06:00 -2°C° 0.2 mm 5 m/s 736 mmHg 90%
    07:00 -2°C° 0.2 mm 4 m/s 736 mmHg 90%
    08:00 -2°C° 0.2 mm 4 m/s 736 mmHg 91%
    09:00 -2°C° 0.3 mm 4 m/s 736 mmHg 92%
    10:00 -1°C° 0.3 mm 3 m/s 736 mmHg 93%
    11:00 -1°C° 0.3 mm 3 m/s 736 mmHg 94%
    12:00 -1°C° 1.7 mm 3 m/s 736 mmHg 94%
    13:00 -2°C° 1.7 mm 3 m/s 736 mmHg 95%
    14:00 -3°C° 1.7 mm 4 m/s 736 mmHg 96%
    15:00 -4°C° 0.7 mm 4 m/s 736 mmHg 94%
    16:00 -7°C° 0.7 mm 4 m/s 737 mmHg 93%
    17:00 -8°C° 0.7 mm 5 m/s 737 mmHg 91%
    18:00 -8°C° 0.1 mm 4 m/s 738 mmHg 90%
    19:00 -9°C° 0.1 mm 4 m/s 739 mmHg 89%
    20:00 -8°C° 0.1 mm 3 m/s 740 mmHg 88%
    21:00 -8°C° 0 mm 3 m/s 741 mmHg 90%
    22:00 -9°C° 0 mm 3 m/s 742 mmHg 92%
    23:00 -10°C° 0 mm 3 m/s 742 mmHg 93%

    Amanhã, 19 Janeiro, Sábado

    Tempo Temperatura Precipitação Vento Pressão Humidade
    00:00 -10°C° 0 mm 3 m/s 743 mmHg 93%
    01:00 -10°C° 0 mm 4 m/s 743 mmHg 94%
    02:00 -10°C° 0 mm 4 m/s 744 mmHg 94%
    03:00 -10°C° 0 mm 4 m/s 744 mmHg 93%
    04:00 -10°C° 0 mm 4 m/s 744 mmHg 93%
    05:00 -10°C° 0 mm 4 m/s 744 mmHg 92%
    06:00 -10°C° 0 mm 4 m/s 744 mmHg 93%
    07:00 -11°C° 0 mm 4 m/s 744 mmHg 93%
    08:00 -10°C° 0 mm 3 m/s 745 mmHg 93%
    09:00 -10°C° 0 mm 4 m/s 745 mmHg 92%
    10:00 -9°C° 0 mm 4 m/s 746 mmHg 92%
    11:00 -8°C° 0 mm 4 m/s 746 mmHg 91%
    12:00 -7°C° 0 mm 4 m/s 746 mmHg 90%
    13:00 -7°C° 0 mm 4 m/s 747 mmHg 89%
    14:00 -5°C° 0 mm 4 m/s 747 mmHg 88%
    15:00 -7°C° 0 mm 4 m/s 747 mmHg 89%
    16:00 -7°C° 0 mm 3 m/s 747 mmHg 91%
    17:00 -8°C° 0 mm 3 m/s 747 mmHg 92%
    18:00 -9°C° 0 mm 3 m/s 748 mmHg 93%
    19:00 -8°C° 0 mm 2 m/s 748 mmHg 95%
    20:00 -9°C° 0 mm 2 m/s 748 mmHg 96%
    21:00 -9°C° 0 mm 3 m/s 748 mmHg 96%
    22:00 -8°C° 0 mm 3 m/s 748 mmHg 95%
    23:00 -7°C° 0 mm 3 m/s 748 mmHg 95%

    Depois de amanhã, 20 Janeiro, Domingo

    Tempo Temperatura Precipitação Vento Pressão Humidade
    00:00 -7°C° 0 mm 4 m/s 748 mmHg 94%
    01:00 -5°C° 0 mm 4 m/s 748 mmHg 92%
    02:00 -4°C° 0 mm 4 m/s 748 mmHg 90%
    03:00 -5°C° 0 mm 5 m/s 747 mmHg 90%
    04:00 -5°C° 0 mm 5 m/s 747 mmHg 90%
    05:00 -6°C° 0 mm 5 m/s 746 mmHg 89%
    06:00 -5°C° 0 mm 5 m/s 746 mmHg 89%
    07:00 -5°C° 0 mm 5 m/s 746 mmHg 89%
    08:00 -5°C° 0 mm 6 m/s 745 mmHg 88%
    09:00 -5°C° 0 mm 6 m/s 745 mmHg 87%
    10:00 -5°C° 0 mm 6 m/s 745 mmHg 86%
    11:00 -4°C° 0 mm 6 m/s 745 mmHg 85%
    12:00 -5°C° 0.2 mm 6 m/s 745 mmHg 87%
    13:00 -5°C° 0.2 mm 6 m/s 745 mmHg 88%
    14:00 -5°C° 0.2 mm 5 m/s 745 mmHg 90%
    15:00 -5°C° 0.3 mm 4 m/s 745 mmHg 91%
    16:00 -5°C° 0.3 mm 3 m/s 745 mmHg 92%
    17:00 -5°C° 0.3 mm 2 m/s 745 mmHg 94%
    18:00 -6°C° 0 mm 2 m/s 746 mmHg 93%
    19:00 -7°C° 0 mm 2 m/s 746 mmHg 93%
    20:00 -8°C° 0 mm 2 m/s 746 mmHg 93%
    21:00 -9°C° 0 mm 2 m/s 746 mmHg 94%
    22:00 -10°C° 0 mm 2 m/s 746 mmHg 95%
    23:00 -13°C° 0 mm 2 m/s 747 mmHg 95%

    21 Janeiro, Segunda-feira

    Tempo Temperatura Precipitação Vento Pressão Humidade
    00:00 -13°C° 0 mm 2 m/s 747 mmHg 95%
    01:00 -12°C° 0 mm 1 m/s 747 mmHg 95%
    02:00 -12°C° 0 mm 1 m/s 747 mmHg 95%
    03:00 -12°C° 0 mm 1 m/s 747 mmHg 96%
    04:00 -15°C° 0 mm 2 m/s 747 mmHg 96%
    05:00 -15°C° 0 mm 2 m/s 748 mmHg 97%
    06:00 -15°C° 0 mm 2 m/s 748 mmHg 97%
    07:00 -15°C° 0 mm 2 m/s 748 mmHg 97%
    08:00 -16°C° 0 mm 2 m/s 748 mmHg 97%
    09:00 -14°C° 0 mm 2 m/s 749 mmHg 96%
    10:00 -14°C° 0 mm 3 m/s 749 mmHg 95%
    11:00 -12°C° 0 mm 3 m/s 749 mmHg 94%
    12:00 -11°C° 0 mm 4 m/s 749 mmHg 93%
    13:00 -10°C° 0 mm 4 m/s 749 mmHg 92%
    14:00 -10°C° 0 mm 4 m/s 749 mmHg 91%
    15:00 -10°C° 0 mm 4 m/s 750 mmHg 91%
    16:00 -10°C° 0 mm 3 m/s 750 mmHg 91%
    17:00 -12°C° 0 mm 3 m/s 750 mmHg 91%
    18:00 -12°C° 0 mm 3 m/s 750 mmHg 93%
    19:00 -13°C° 0 mm 3 m/s 750 mmHg 95%
    20:00 -13°C° 0 mm 3 m/s 750 mmHg 96%
    21:00 -13°C° 0 mm 3 m/s 751 mmHg 96%
    22:00 -13°C° 0 mm 2 m/s 751 mmHg 96%
    23:00 -13°C° 0 mm 2 m/s 751 mmHg 96%

    22 Janeiro, Terça-feira

    Tempo Temperatura Precipitação Vento Pressão Humidade
    00:00 -13°C° 0 mm 2 m/s 751 mmHg 96%
    01:00 -13°C° 0 mm 2 m/s 750 mmHg 96%
    02:00 -13°C° 0 mm 2 m/s 750 mmHg 96%
    03:00 -13°C° 0 mm 2 m/s 750 mmHg 95%
    04:00 -13°C° 0 mm 2 m/s 749 mmHg 95%
    05:00 -13°C° 0 mm 2 m/s 749 mmHg 94%
    06:00 -13°C° 0 mm 3 m/s 749 mmHg 94%
    07:00 -12°C° 0 mm 3 m/s 748 mmHg 93%
    08:00 -10°C° 0 mm 3 m/s 748 mmHg 93%
    09:00 -10°C° 0.3 mm 4 m/s 747 mmHg 92%
    10:00 -9°C° 0.3 mm 4 m/s 747 mmHg 92%
    11:00 -8°C° 0.3 mm 4 m/s 747 mmHg 92%
    12:00 -7°C° 0.4 mm 4 m/s 746 mmHg 91%
    13:00 -7°C° 0.4 mm 4 m/s 746 mmHg 91%
    14:00 -6°C° 0.4 mm 5 m/s 746 mmHg 91%
    15:00 -5°C° 0.3 mm 4 m/s 746 mmHg 92%
    16:00 -5°C° 0.3 mm 4 m/s 746 mmHg 92%
    17:00 -5°C° 0.3 mm 3 m/s 746 mmHg 93%
    18:00 -5°C° 0 mm 3 m/s 746 mmHg 93%
    19:00 -5°C° 0 mm 3 m/s 746 mmHg 94%
    20:00 -6°C° 0 mm 3 m/s 746 mmHg 94%
    21:00 -5°C° 0 mm 2 m/s 746 mmHg 94%
    22:00 -5°C° 0 mm 2 m/s 746 mmHg 95%
    23:00 -5°C° 0 mm 2 m/s 746 mmHg 95%

    23 Janeiro, Quarta-feira

    Tempo Temperatura Precipitação Vento Pressão Humidade
    00:00 -6°C° 0 mm 2 m/s 746 mmHg 96%
    01:00 -6°C° 0 mm 2 m/s 746 mmHg 96%
    02:00 -7°C° 0 mm 2 m/s 746 mmHg 96%
    03:00 -7°C° 0 mm 2 m/s 746 mmHg 96%
    04:00 -7°C° 0 mm 2 m/s 746 mmHg 97%
    05:00 -7°C° 0 mm 2 m/s 746 mmHg 97%
    06:00 -7°C° 0.1 mm 2 m/s 746 mmHg 96%
    07:00 -8°C° 0.1 mm 2 m/s 746 mmHg 96%
    08:00 -8°C° 0.1 mm 2 m/s 746 mmHg 96%
    09:00 -8°C° 0 mm 2 m/s 746 mmHg 95%
    10:00 -9°C° 0 mm 2 m/s 746 mmHg 94%
    11:00 -9°C° 0 mm 2 m/s 746 mmHg 92%
    12:00 -9°C° 0 mm 2 m/s 746 mmHg 92%
    13:00 -9°C° 0 mm 2 m/s 746 mmHg 92%
    14:00 -9°C° 0 mm 2 m/s 746 mmHg 91%
    15:00 -10°C° 0 mm 2 m/s 746 mmHg 92%
    16:00 -12°C° 0 mm 2 m/s 746 mmHg 94%
    17:00 -14°C° 0 mm 2 m/s 746 mmHg 95%
    18:00 -14°C° 0 mm 2 m/s 746 mmHg 95%
    19:00 -15°C° 0 mm 2 m/s 746 mmHg 96%
    20:00 -15°C° 0 mm 2 m/s 746 mmHg 96%
    21:00 -14°C° 0 mm 2 m/s 746 mmHg 97%
    22:00 -14°C° 0 mm 2 m/s 746 mmHg 97%
    23:00 -13°C° 0 mm 2 m/s 746 mmHg 97%
    Mostrar mais